This is the latest recevied weather packets stored in our database for station/object WA2FTC. If no packets are shown the sender has not sent any weather packets the latest 10 day(s).
| Time | Temp. | Humidity | Pressure | Rain* | Wind** | Luminosity | Snow |
|---|---|---|---|---|---|---|---|
| 1777767332 | - | - | 1009.1 hPa | 0 mm | - | - | - |
| 1777766429 | - | - | 1009.1 hPa | 0 mm | - | - | - |
| 1777765526 | 20.56° C | 100% | 1008.7 hPa | 0 mm | - | - | - |
| 1777764655 | 20.56° C | 100% | 1008.7 hPa | 0 mm | - | - | - |
| 1777763754 | 20.56° C | 100% | 1009 hPa | 0 mm | - | - | - |
| 1777762851 | 21.11° C | 100% | 1009.1 hPa | 0 mm | - | - | - |
| 1777761964 | 21.11° C | 100% | 1008.7 hPa | 0 mm | - | - | - |
| 1777761050 | 21.11° C | 100% | 1008.2 hPa | 0 mm | - | - | - |
| 1777760151 | 21.11° C | 100% | 1008.4 hPa | 0 mm | - | - | - |
| 1777759247 | 21.11° C | 100% | 1008.1 hPa | 0 mm | - | - | - |
| 1777758349 | 21.11° C | 100% | 1008.4 hPa | 0 mm | - | - | - |
| 1777757448 | 21.11° C | 100% | 1008.2 hPa | 0 mm | - | - | - |
| 1777756559 | 21.11° C | 100% | 1007.9 hPa | 0 mm | - | - | - |
| 1777755643 | 20.56° C | 99% | 1007.8 hPa | 0 mm | - | - | - |
| 1777754742 | 20° C | 99% | 1007.8 hPa | 0 mm | - | - | - |
| 1777753840 | 20.56° C | 99% | 1009 hPa | 0 mm | - | - | - |
| 1777752938 | 20.56° C | 99% | 1009.6 hPa | 0 mm | - | - | - |
| 1777752008 | 20.56° C | 99% | 1008.9 hPa | 0 mm | - | - | - |
| 1777751107 | 21.11° C | 98% | 1009.4 hPa | 0 mm | - | - | - |
| 1777750204 | 20.56° C | 97% | 1009.7 hPa | 0 mm | - | - | - |
| 1777749364 | 21.11° C | 96% | 1009.6 hPa | 0 mm | - | - | - |
| 1777748458 | 25.56° C | 82% | 1010.2 hPa | 0 mm | - | - | - |
| 1777747557 | 26.67° C | 87% | 1008.8 hPa | 0 mm | - | - | - |
| 1777746656 | 28.33° C | 81% | 1008.9 hPa | 0 mm | - | - | - |
| 1777745746 | 28.89° C | 81% | 1008.6 hPa | 0 mm | - | - | - |
* Rain latest hour (hover to see other rain measurements)
** Current wind speed in m/s (hover to see current wind gust speed)